Reno - Stead, NV

4:43 PM PDT on May 22, 2017 (GMT -0700)
Reno - Stead

Weather History for KRTS - October, 2012

Change the Weather History Date:

Monday, October 22, 2012

  Actual Average (KRNO) Record (KRNO)
Temperature  
Mean Temperature 40 °F -  
Max Temperature 48 °F 67 °F 83 °F (2003)
Min Temperature 32 °F 32 °F 14 °F (1961)
Degree Days  
Heating Degree Days 25    
Moisture  
Dew Point 28 °F    
Average Humidity 65    
Maximum Humidity 100    
Minimum Humidity 32    
Precipitation  
Precipitation 0.00 in - - ()
Sea Level Pressure  
Sea Level Pressure 29.74 in    
Wind  
Wind Speed 15 mph ()    
Max Wind Speed 34 mph    
Max Gust Speed 50 mph    
Visibility 9.3 miles    
Events Rain , Snow    
Averages and records for this station are not official NWS values.
T = Trace of Precipitation, MM = Missing Value Source: Averaged Metar Reports

Daily Weather History Graph

Daily Weather History Graph

Search for Another Location

Airport or City:

Trip Planner

Search our weather history database for the weather conditions in past years. The results will help you decide how hot, cold, wet, or windy it might be!

Date:

Astronomy

Oct. 22, 2012 Rise Set
Actual Time 7:17 AM PDT 6:09 PM PDT
Civil Twilight 6:50 AM PDT 6:36 PM PDT
Nautical Twilight 6:18 AM PDT 7:08 PM PDT
Astronomical Twilight 5:47 AM PDT 7:39 PM PDT
Moon 2:19 PM PDT 12:11 AM PDT
Length of Visible Light 11h 46m
Length of Day
10h 51m
First Quarter, 57% of the Moon is Illuminated
Oct 22
First Quarter
Oct 29
Full
Nov 6
Last Quarter
Nov 13
New
Nov 20
First Quarter

Hourly Weather History & Observations

Time (PDT) Temp. Windchill Dew Point Humidity Pressure Visibility Wind Dir Wind Speed Gust Speed Precip Events Conditions
12:15 AM 48.2 °F - 19.4 °F 32% 29.76 in 10.0 mi SW 8.1 mph - N/A   Clear
12:55 AM 48.2 °F - 19.4 °F 32% 29.74 in 10.0 mi SW 12.7 mph 20.7 mph N/A   Clear
1:15 AM 46.4 °F 40.1 °F 24.8 °F 43% 29.75 in 10.0 mi WSW 15.0 mph 29.9 mph N/A   Clear
1:35 AM 42.8 °F 37.5 °F 32.0 °F 66% 29.79 in 9.0 mi SW 9.2 mph 33.4 mph N/A   Mostly Cloudy
2:15 AM 39.2 °F 28.3 °F 32.0 °F 75% 29.73 in 5.0 mi SSW 25.3 mph 49.5 mph N/A Rain Light Rain
2:55 AM 39.2 °F 29.0 °F 30.2 °F 70% 29.74 in 10.0 mi WSW 21.9 mph 41.4 mph N/A Rain Light Rain
3:15 AM 39.2 °F 30.2 °F 30.2 °F 70% 29.75 in 10.0 mi WSW 17.3 mph 35.7 mph N/A   Overcast
3:35 AM 37.4 °F 28.2 °F 32.0 °F 81% 29.74 in 7.0 mi SSW 16.1 mph 28.8 mph N/A Snow Light Snow
4:15 AM 37.4 °F 27.8 °F 32.0 °F 81% 29.72 in 10.0 mi North 17.3 mph - N/A Rain Light Rain
4:35 AM 37.4 °F 29.8 °F 32.0 °F 81% 29.72 in 10.0 mi NW 11.5 mph 18.4 mph N/A   Overcast
4:55 AM 37.4 °F 31.4 °F 32.0 °F 81% 29.72 in 10.0 mi North 8.1 mph - N/A   Overcast
5:15 AM 37.4 °F 34.9 °F 32.0 °F 81% 29.70 in 7.0 mi SE 3.5 mph 20.7 mph N/A Rain Light Rain
5:35 AM 39.2 °F 33.6 °F 32.0 °F 75% 29.70 in 10.0 mi ESE 8.1 mph - N/A   Overcast
6:15 AM 39.2 °F 30.8 °F 30.2 °F 70% 29.68 in 10.0 mi SSW 15.0 mph 27.6 mph N/A   Overcast
6:35 AM 39.2 °F 30.5 °F 30.2 °F 70% 29.69 in 10.0 mi SW 16.1 mph 24.2 mph N/A   Mostly Cloudy
7:15 AM 39.2 °F 32.5 °F 32.0 °F 75% 29.68 in 10.0 mi SW 10.4 mph 23.0 mph N/A   Mostly Cloudy
7:35 AM 39.2 °F 31.2 °F 32.0 °F 75% 29.68 in 10.0 mi SW 13.8 mph 28.8 mph N/A   Mostly Cloudy
7:55 AM 39.2 °F 29.6 °F 30.2 °F 70% 29.68 in 10.0 mi SW 19.6 mph 27.6 mph N/A   Scattered Clouds
8:15 AM 39.2 °F 30.8 °F 28.4 °F 65% 29.71 in 10.0 mi SW 15.0 mph 23.0 mph N/A   Scattered Clouds
8:35 AM 39.2 °F 29.6 °F 32.0 °F 75% 29.70 in 8.0 mi WSW 19.6 mph 27.6 mph N/A Rain Light Rain
8:55 AM 39.2 °F 35.9 °F 32.0 °F 75% 29.70 in 10.0 mi WNW 4.6 mph - N/A   Clear
9:15 AM 41.0 °F 35.2 °F 30.2 °F 65% 29.71 in 10.0 mi SW 9.2 mph 21.9 mph N/A   Clear
9:35 AM 41.0 °F 33.9 °F 32.0 °F 70% 29.71 in 10.0 mi West 12.7 mph 23.0 mph N/A   Scattered Clouds
9:55 AM 42.8 °F 37.5 °F 30.2 °F 61% 29.70 in 10.0 mi West 9.2 mph 27.6 mph N/A   Scattered Clouds
10:15 AM 42.8 °F 38.0 °F 32.0 °F 66% 29.71 in 10.0 mi West 8.1 mph 23.0 mph N/A   Partly Cloudy
10:35 AM 44.6 °F 36.6 °F 32.0 °F 61% 29.72 in 10.0 mi WSW 19.6 mph 27.6 mph N/A   Clear
10:55 AM 42.8 °F 36.2 °F 32.0 °F 66% 29.72 in 9.0 mi WNW 12.7 mph 28.8 mph N/A Rain Light Rain
11:15 AM 44.6 °F 38.1 °F 32.0 °F 61% 29.72 in 10.0 mi WNW 13.8 mph - N/A   Partly Cloudy
11:35 AM 46.4 °F 39.5 °F 32.0 °F 57% 29.72 in 10.0 mi West 17.3 mph 24.2 mph N/A   Partly Cloudy
11:55 AM 46.4 °F 37.2 °F 32.0 °F 57% 29.72 in 10.0 mi WSW 29.9 mph 35.7 mph N/A   Clear
12:15 PM 46.4 °F 37.9 °F 30.2 °F 53% 29.71 in 10.0 mi WSW 25.3 mph 33.4 mph N/A   Clear
12:35 PM 46.4 °F 38.1 °F 28.4 °F 50% 29.70 in 10.0 mi WSW 24.2 mph 39.1 mph N/A   Clear
12:55 PM 46.4 °F 37.7 °F 30.2 °F 53% 29.70 in 10.0 mi WSW 26.5 mph 38.0 mph N/A   Clear
1:15 PM 44.6 °F 34.6 °F 32.0 °F 61% 29.71 in 9.0 mi WSW 31.1 mph 40.3 mph N/A Rain Light Rain
1:35 PM 46.4 °F 37.0 °F 28.4 °F 50% 29.71 in 10.0 mi WSW 31.1 mph 42.6 mph N/A   Partly Cloudy
1:55 PM 46.4 °F 36.5 °F 28.4 °F 50% 29.72 in 7.0 mi WSW 34.5 mph 48.3 mph N/A   Clear
2:15 PM 46.4 °F 37.4 °F 28.4 °F 50% 29.72 in 10.0 mi WSW 28.8 mph 41.4 mph N/A   Clear
2:35 PM 46.4 °F 37.9 °F 28.4 °F 50% 29.72 in 10.0 mi WSW 25.3 mph 42.6 mph N/A   Clear
2:55 PM 44.6 °F 35.5 °F 28.4 °F 53% 29.73 in 10.0 mi West 25.3 mph 38.0 mph N/A   Clear
3:15 PM 46.4 °F 37.5 °F 24.8 °F 43% 29.74 in 10.0 mi WSW 27.6 mph 40.3 mph N/A   Clear
3:35 PM 44.6 °F 35.1 °F 24.8 °F 46% 29.74 in 10.0 mi WSW 27.6 mph 39.1 mph N/A   Clear
4:15 PM 42.8 °F 33.3 °F 23.0 °F 46% 29.75 in 10.0 mi WSW 24.2 mph 47.2 mph N/A   Clear
4:35 PM 42.8 °F 32.7 °F 19.4 °F 39% 29.75 in 10.0 mi WSW 27.6 mph 38.0 mph N/A   Clear
4:55 PM 41.0 °F 30.7 °F 19.4 °F 42% 29.74 in 10.0 mi WSW 25.3 mph 41.4 mph N/A   Clear
5:15 PM 41.0 °F 30.7 °F 17.6 °F 39% 29.74 in 10.0 mi WSW 25.3 mph 38.0 mph N/A   Clear
5:35 PM 41.0 °F 30.2 °F 19.4 °F 42% 29.73 in 10.0 mi SW 27.6 mph 48.3 mph N/A   Clear
5:55 PM 39.2 °F 28.7 °F 17.6 °F 42% 29.74 in 10.0 mi WSW 23.0 mph 39.1 mph N/A   Clear
6:15 PM 39.2 °F 29.0 °F 19.4 °F 45% 29.74 in 10.0 mi WSW 21.9 mph 34.5 mph N/A   Clear
6:35 PM 39.2 °F 28.0 °F 19.4 °F 45% 29.75 in 10.0 mi WSW 26.5 mph 40.3 mph N/A   Clear
6:55 PM 37.4 °F 26.4 °F 19.4 °F 48% 29.77 in 10.0 mi WSW 23.0 mph 33.4 mph N/A   Clear
7:55 PM 32.0 °F 24.2 °F 28.4 °F 87% 29.80 in 10.0 mi WNW 9.2 mph - N/A Rain Light Rain
8:15 PM 33.8 °F 27.0 °F 30.2 °F 87% 29.80 in 9.0 mi NW 8.1 mph - N/A Rain Light Rain
8:35 PM 32.0 °F 27.5 °F 30.2 °F 93% 29.80 in 3.0 mi NNE 4.6 mph - N/A Snow Light Snow
8:55 PM 32.0 °F 27.5 °F 32.0 °F 100% 29.81 in 3.0 mi North 4.6 mph - N/A Snow Light Snow
9:15 PM 32.0 °F 25.6 °F 32.0 °F 100% 29.80 in 2.5 mi NNE 6.9 mph - N/A Snow Light Snow
9:35 PM 33.8 °F - 30.2 °F 87% 29.79 in 10.0 mi Calm Calm - N/A   Overcast
9:55 PM 32.0 °F 27.5 °F 32.0 °F 100% 29.79 in 10.0 mi East 4.6 mph - N/A   Overcast
10:15 PM 35.6 °F 28.6 °F 30.2 °F 81% 29.79 in 10.0 mi SSE 9.2 mph - N/A   Overcast
10:35 PM 33.8 °F - 32.0 °F 93% 29.80 in 5.0 mi Calm Calm - N/A Snow Light Snow
10:55 PM 35.6 °F 23.0 °F 30.2 °F 81% 29.79 in 10.0 mi SW 27.6 mph 35.7 mph N/A   Mostly Cloudy
11:15 PM 37.4 °F 28.9 °F 28.4 °F 70% 29.80 in 10.0 mi SW 13.8 mph - N/A   Overcast
11:35 PM 35.6 °F 31.7 °F 30.2 °F 81% 29.80 in 10.0 mi SSE 4.6 mph - N/A   Mostly Cloudy
11:55 PM 35.6 °F - 30.2 °F 81% 29.80 in 10.0 mi Calm Calm - N/A   Overcast